Regional Weather Roundup
Issued by NWS

Home | Current Version | Previous Version | Text Only | Print | Product List | Glossary On
Versions: 1 2 3 4 5 6 7 8 9 10 11 12 13 14 15 16 17 18 19 20 21 22 23 24 25 26 27 28 29 30 31 32 33 34 35 36 37 38 39 40 41 42 43 44 45 46 47 48 49 50
000
ASUS42 KFFC 300303
RWRGA
WEATHER ROUNDUP FOR GEORGIA
NATIONAL WEATHER SERVICE PEACHTREE CITY GA
1100 PM EDT FRI MAY 29 2015

NOTE: "FAIR" INDICATES FEW OR NO CLOUDS BELOW 12,000 FEET WITH NO
SIGNIFICANT WEATHER AND/OR OBSTRUCTIONS TO VISIBILITY.

* = USE WITH CAUTION. THE STATIONS MARKED WITH AN ASTERISK MAY NOT
REPORT WEATHER SUCH AS PRECIPITATION, FOG, OR THUNDER AND ARE NOT
QUALITY CONTROLLED BY NWS.

THE REMARK "TC" DENOTES TEMPERATURE READING IN DEGREES CELSIUS.

GAZ001>058-300400-
NORTH GEORGIA

CITY           SKY/WX    TMP DP  RH WIND       PRES   REMARKS
ATLANTA        PTCLDY    74  61  63 CALM      30.16R
ATHENS         PTCLDY    69  62  78 CALM      30.17R
CHAMBLEE       CLEAR     71  63  75 MISG      30.17R
PEACHTREE CITY CLEAR     66  63  90 CALM      30.17R
ROME           CLEAR     69  68  96 CALM      30.15R
WEST ATLANTA   CLEAR     68  63  84 NE3       30.16R
GAINESVILLE    CLEAR     72  60  66 SE3       30.20S
CARTERSVILLE   PTCLDY    67  63  87 CALM      30.16R


CITY           SKY/WX    TMP DP  RH WIND       PRES   REMARKS
DALTON*        PTCLDY    70  70 100 CALM      30.16R
MARIETTA       MOCLDY    72  63  72 CALM      30.17R
KENNESAW*      CLEAR     72  63  73 SE3       30.17R
BLAIRSVILLE*     N/A     66  53  63 CALM      30.23R
$$

GAZ059>098-102>109-300400-
CENTRAL GEORGIA

CITY           SKY/WX    TMP DP  RH WIND       PRES   REMARKS
AUGUSTA-BUSH   PTCLDY    75  66  73 SE6       30.17R
AUGUSTA-DANIEL PTCLDY    77  66  68 SE6       30.19R
COLUMBUS       CLEAR     76  60  57 E3        30.13R
MACON          PTCLDY    69  66  90 CALM      30.14R
ROBINS AFB     CLEAR     70  67  90 CALM      30.13R


CITY           SKY/WX    TMP DP  RH WIND       PRES   REMARKS
LAGRANGE*      CLEAR     70  70  99 CALM      30.15R
SYLVANIA*      CLEAR     74  70  86 CALM      30.19R
MILLEDGEVILLE* CLEAR     70  64  83 CALM      30.15S
$$

GAZ099>101-110>166-300400-
SOUTH GEORGIA

CITY           SKY/WX    TMP DP  RH WIND       PRES   REMARKS
SAVANNAH       PTCLDY    73  68  84 E7        30.17R
VALDOSTA       CLEAR     76  66  71 E7        30.13R
ALMA           MOCLDY    71  65  81 E3        30.15R
FT STEWART     PTCLDY    72  68  88 CALM      30.15R
ALBANY         PTCLDY    73  61  65 CALM      30.13R
HUNTER AFB     CLEAR     74  71  89 E6        30.14S
MOODY AFB      CLEAR     74  65  73 E5        30.13R
BRUNSWICK      CLEAR     72  68  88 CALM      30.15S


CITY           SKY/WX    TMP DP  RH WIND       PRES   REMARKS
BAINBRIDGE*    CLEAR     75  66  73 CALM      30.11S
MOULTRIE*      CLEAR     72  63  73 CALM      30.13S
VIDALIA*       CLOUDY    73  66  78 CALM      30.17R
WAYCROSS*      CLEAR     73  69  87 SE3       30.15R
DOUGLAS*       CLEAR     75  64  69 E5        30.16S
$$


USA.gov is the U.S. government's official web portal to all federal, state and local government web resources and services.